SCP
1 1 1 1 2 3 3 4 4 4 4 3 2 2 1 1 1 1 1 1 1 1 1 1 1 1 1 1 1 1 1 1 1 1 1 1 1 1 1 1 1 1 1
1 1 1 2 2 3 4 4 4 4 3 3 2 1 1 1 1 1 1 1 1 1 1 1 1 1 1 1 1 1 1 1 1 1 1 1 1 1 1 1 1 1 1
1 1 2 2 3 3 4 4 4 3 2 2 1 1 1 1 1 1 1 1 1 1 1 1 1 1 1 1 1 1 1 1 1 1 0 0 1 1 1 1 1 1 1
1 1 2 2 3 3 3 3 3 2 2 1 1 1 1 1 1 1 1 1 1 1 1 1 1 1 1 1 1 1 1 1 1 1 0 0 1 1 1 1 1 1 1
1 1 2 2 3 3 3 3 2 2 2 1 1 1 1 1 1 1 1 1 1 1 1 1 1 1 1 1 1 1 1 1 1 1 0 0 0 1 1 1 1 1 1
1 1 2 2 2 3 2 2 2 3 2 2 1 1 1 1 1 1 1 1 1 1 1 1 1 1 1 1 1 1 1 1 1 1 0 0 0 0 1 1 1 1 1
1 1 1 2 2 3 3 2 2 3 3 2 1 1 1 1 1 1 1 1 1 1 1 1 1 1 1 1 1 1 1 1 1 1 0 0 0 0 1 1 1 1 1
1 1 1 2 2 3 3 3 3 3 3 1 1 1 1 1 1 1 1 1 1 1 1 1 1 1 1 1 1 1 1 1 1 0 0 0 0 0 1 1 1 1 1
1 1 1 2 2 2 3 4 4 3 2 1 1 1 1 1 1 1 1 1 1 1 1 1 1 1 1 1 1 1 1 1 1 0 0 0 1 1 1 1 1 1 1
2 2 2 2 2 2 3 3 3 3 2 1 1 1 1 1 1 1 1 1 1 1 1 1 1 1 1 1 1 1 1 1 1 1 0 0 1 1 1 1 1 1 1
2 2 2 2 2 2 2 2 2 2 2 1 1 1 1 1 1 1 1 1 1 1 1 1 1 1 1 1 1 1 1 1 0 1 1 1 1 1 1 1 1 1 1
3 3 3 3 3 3 2 2 1 1 1 1 1 1 1 1 1 1 1 1 1 1 1 1 1 1 1 1 1 1 1 1 1 0 1 1 1 1 1 1 1 1 1
3 3 3 3 3 3 2 1 1 1 1 1 1 1 1 1 1 1 1 0 0 0 0 0 0 1 1 1 1 1 1 1 1 1 1 1 1 1 1 1 1 1 1
4 3 2 2 2 1 1 1 1 1 1 1 1 1 1 1 1 1 0 0 0 0 0 0 0 0 0 1 1 1 1 1 1 1 1 1 2 2 1 1 1 1 1
4 3 2 1 1 1 1 1 1 1 1 0 0 1 1 1 0 0 0 0 0 0 0 0 0 0 0 0 0 1 1 1 1 1 1 2 2 2 2 2 2 2 2
4 3 2 1 1 1 1 1 1 1 1 1 1 0 0 0 0 0 0 0 0 0 1 1 1 1 0 0 0 0 1 1 1 1 1 1 2 3 2 2 2 1 1
3 3 3 2 2 2 2 2 2 2 1 1 1 1 1 1 1 0 0 0 0 0 1 1 1 1 0 0 0 0 0 1 1 1 1 1 2 3 3 2 2 1 1
3 4 4 3 3 3 3 3 3 3 2 2 2 1 1 1 1 1 0 0 0 0 0 1 0 0 0 0 0 0 0 0 0 0 1 1 1 2 2 2 2 2 1
4 5 6 5 4 3 4 4 4 3 3 3 2 1 1 1 1 1 1 0 0 0 0 0 0 0 0 0 0 0 0 0 0 0 1 1 1 1 2 2 2 2 1
6 7 7 6 5 4 4 4 4 3 3 3 2 1 1 1 1 1 1 0 0 0 0 0 0 0 0 0 0 0 0 0 0 1 1 1 1 1 1 2 2 2 1
8 9 9 8 5 4 4 4 3 3 3 3 3 2 1 1 1 1 1 0 0 0 0 0 0 0 0 0 0 0 0 0 0 0 1 1 1 1 1 1 1 1 1
8 10 11 9 6 4 3 4 4 3 3 3 3 2 2 1 1 1 1 0 0 0 0 0 0 0 0 0 0 0 0 0 0 0 0 1 1 1 1 1 1 1 1
7 9 11 10 7 4 3 4 5 4 4 3 2 2 1 1 1 1 1 1 1 1 1 1 1 1 0 0 0 1 0 0 0 0 0 0 1 1 1 1 1 1 1
7 9 11 11 8 5 4 4 5 4 3 2 2 2 1 1 1 1 1 1 1 1 1 1 1 1 1 1 1 1 1 1 1 0 0 0 1 1 1 1 1 1 1
9 11 12 11 9 6 4 4 4 3 3 2 2 1 1 1 1 1 1 1 1 1 1 1 1 1 1 1 1 1 1 1 1 1 1 0 0 1 1 1 1 1 1
12 13 13 11 9 6 4 3 3 3 3 2 2 1 1 1 1 1 1 1 1 1 1 1 1 1 1 1 1 1 1 1 1 1 1 0 0 1 1 1 1 1 1
Wind_Speed
4 6 11 13 14 14 14 14 14 14 14 14 14 14 14 14 14 14 14 13 13 12 12 11 11 10 10 10 11 11 11 11 11 11 10 10 10 10 9 10 9 7 10
8 8 13 13 13 14 14 14 14 14 14 13 13 13 13 13 13 13 13 12 12 11 11 10 10 10 9 9 9 9 9 10 10 10 9 8 9 9 9 10 9 6 11
10 8 11 13 14 14 14 14 13 13 13 13 13 12 12 12 12 12 12 12 11 11 10 10 9 9 9 9 9 8 8 8 9 8 7 4 5 8 9 10 10 10 11
10 8 10 13 14 14 13 13 13 13 13 13 12 12 12 12 12 12 12 11 11 10 10 10 9 8 8 8 8 8 8 8 8 7 3 3 4 7 9 10 10 11 11
9 8 10 15 14 14 13 13 13 13 13 13 12 12 12 12 11 11 11 10 10 10 9 9 8 8 7 7 7 6 6 7 7 5 3 3 3 6 10 10 11 11 10
9 8 11 15 15 14 12 12 14 14 13 13 12 12 11 11 11 11 10 10 9 9 9 8 8 7 6 6 6 6 6 6 4 3 3 3 3 7 10 11 11 11 10
9 8 10 14 14 14 13 13 14 14 13 13 12 11 11 10 10 10 9 9 9 8 8 7 7 6 6 5 5 5 5 5 4 3 4 3 5 8 10 11 11 11 11
11 9 9 14 14 13 13 13 14 14 13 12 11 10 10 9 9 9 8 8 8 8 7 6 6 5 4 4 4 4 4 5 4 4 3 3 6 9 10 11 11 11 11
10 8 6 7 10 12 13 13 13 13 12 11 11 10 9 8 8 8 8 8 8 7 7 6 5 4 4 3 3 3 4 5 3 2 4 3 7 10 10 11 12 12 11
8 7 7 5 5 5 7 12 12 12 11 10 10 9 8 8 8 8 7 7 8 8 7 6 5 4 3 3 3 3 4 4 2 2 2 4 8 11 11 11 11 11 11
9 6 7 6 5 5 5 8 9 10 9 9 7 8 6 3 3 3 5 7 8 7 7 6 5 4 3 2 3 2 2 1 2 2 2 5 8 10 11 11 10 11 11
9 8 6 6 6 5 5 5 3 4 4 3 3 3 2 2 2 3 4 6 6 6 5 5 5 4 2 1 2 2 1 2 2 2 2 7 9 10 11 11 10 10 10
10 9 7 7 6 5 4 4 2 2 2 3 3 3 2 2 1 1 1 2 2 3 2 2 2 1 1 1 1 1 1 1 1 1 2 7 9 10 10 10 10 10 10
9 9 8 7 6 5 5 4 3 3 2 3 3 4 3 2 2 1 1 1 1 1 1 1 1 1 1 1 2 2 2 1 1 1 2 7 9 9 10 10 10 10 10
9 8 8 7 7 6 5 4 4 3 3 3 3 3 4 3 2 2 1 1 1 1 1 1 1 1 1 1 1 2 3 3 3 2 2 6 8 9 10 10 11 10 10
9 9 7 7 6 6 4 3 3 3 3 3 3 4 4 3 3 2 1 1 1 1 1 2 2 2 1 1 1 2 3 2 3 3 2 4 7 8 9 10 10 10 10
9 9 8 7 6 6 5 4 4 3 3 3 3 3 4 3 3 3 2 1 1 1 1 1 1 1 1 1 1 2 2 2 3 4 3 2 3 6 8 9 10 10 11
9 8 8 8 7 6 5 4 3 3 3 3 3 3 3 3 3 3 2 2 1 1 1 1 1 1 0 0 0 1 1 2 3 3 3 3 2 3 4 7 8 9 10
10 9 8 7 7 6 5 4 3 3 3 3 2 3 3 3 3 3 2 1 1 1 1 1 1 1 1 0 1 1 1 2 2 3 3 3 3 3 2 4 7 8 9
9 8 8 7 6 6 4 3 3 3 2 2 2 3 3 3 3 3 2 1 1 1 0 1 1 0 1 1 0 1 1 1 1 2 3 2 2 3 3 3 3 4 6
8 8 8 7 6 5 4 3 3 2 2 2 2 3 3 3 3 3 2 1 2 1 1 1 1 1 0 1 2 2 2 1 1 1 1 2 2 2 2 2 2 1 2
10 9 8 8 7 5 4 3 3 3 2 2 2 2 3 3 3 3 3 2 2 1 1 1 1 1 0 1 2 1 2 3 2 1 1 2 2 1 2 3 2 2 2
11 10 9 8 7 6 5 3 3 2 1 1 1 1 2 3 3 3 3 2 2 2 1 1 1 2 1 1 1 3 2 1 2 2 1 0 1 1 1 2 2 2 2
11 10 8 8 7 6 6 5 5 4 3 3 2 2 2 2 3 3 2 2 2 2 2 1 2 2 2 1 1 0 2 3 2 1 2 1 1 1 1 2 2 2 2
10 10 8 7 7 6 6 6 6 4 3 2 2 3 2 1 2 2 3 2 2 2 2 2 1 1 2 2 1 0 0 0 1 2 1 1 1 1 1 1 1 1 1
8 8 8 7 6 6 7 6 6 6 5 4 3 3 2 1 1 2 2 2 2 2 2 1 1 1 1 1 1 1 2 1 1 2 2 1 1 2 1 1 1 1 2
Wind_Direction
155 156 141 133 127 125 124 122 121 120 118 117 117 117 118 120 121 124 126 128 128 129 130 132 132 133 135 138 143 145 147 145 144 145 148 148 147 144 142 140 141 137 135
151 151 140 134 130 130 129 128 126 125 124 123 122 122 122 124 126 129 130 130 131 131 131 132 133 134 137 140 143 146 151 151 151 152 154 152 150 148 149 146 149 144 145
143 147 141 137 134 133 133 133 133 131 130 129 127 126 127 128 130 132 132 133 133 134 135 134 134 135 138 143 147 150 153 156 157 157 156 152 152 156 155 152 153 148 146
144 144 142 141 138 137 136 137 139 137 136 133 132 132 131 131 133 133 135 135 137 137 138 138 138 139 143 148 152 156 159 165 166 164 154 152 159 161 162 158 155 151 149
135 139 144 142 141 141 141 143 143 141 139 137 136 136 136 136 137 138 139 140 141 142 143 143 143 145 148 152 156 163 168 169 173 170 156 158 161 168 165 161 158 155 154
136 139 143 142 141 141 139 142 144 140 139 137 138 139 139 140 143 144 146 146 146 147 149 149 151 155 156 159 162 168 173 175 169 154 156 166 172 177 171 168 166 162 160
139 139 144 143 142 141 139 137 142 140 139 139 140 142 143 144 146 150 151 150 151 153 154 155 157 160 165 169 169 171 174 178 162 157 167 178 185 180 177 173 171 167 165
142 142 145 148 145 143 139 135 138 140 141 142 143 145 147 150 153 156 159 158 157 157 158 157 156 160 168 174 179 180 183 185 166 167 171 185 188 185 179 176 174 173 173
139 140 142 148 148 147 143 140 142 144 144 145 146 148 151 155 161 165 167 166 166 163 163 164 162 161 166 178 191 192 181 173 165 173 186 188 190 187 183 178 178 178 179
137 141 142 144 144 145 145 146 148 149 148 148 149 150 152 156 164 169 169 172 171 170 171 170 169 170 174 185 193 187 178 166 165 180 191 192 191 188 187 184 183 183 182
144 148 148 147 145 146 147 147 150 153 151 151 152 153 149 146 153 160 172 178 178 177 175 177 183 188 194 204 208 194 177 168 177 181 190 191 186 189 188 186 185 185 182
153 161 157 155 157 158 158 142 143 147 140 139 142 147 139 136 154 160 174 184 186 186 186 191 199 206 210 220 230 217 175 174 183 197 196 187 186 192 190 188 186 186 185
156 156 158 161 163 162 150 146 147 139 136 144 154 158 156 142 142 145 168 184 192 193 196 198 211 216 204 200 221 194 180 169 189 205 195 188 190 191 189 187 187 189 190
150 154 153 155 156 157 150 150 152 148 149 150 161 165 150 134 135 149 181 180 168 172 176 189 193 202 222 212 199 177 171 182 172 196 195 188 187 185 186 188 190 192 193
150 153 156 153 155 155 147 152 148 151 151 150 145 150 143 142 156 157 178 169 165 167 173 173 181 178 214 220 192 181 185 197 187 184 194 189 190 187 190 194 197 199 200
153 155 154 149 151 145 142 140 141 147 147 144 153 160 154 155 159 148 151 161 190 190 184 180 183 187 202 186 200 189 179 176 182 179 184 190 191 191 197 200 201 202 206
154 152 150 148 144 138 137 143 141 147 144 145 152 154 151 153 150 146 147 148 212 205 167 147 145 151 152 151 195 203 186 179 176 183 184 191 195 197 202 205 206 208 209
151 147 153 150 141 136 133 135 136 142 142 147 151 146 141 147 147 143 147 158 174 155 125 127 129 107 86 137 217 235 210 193 186 189 187 191 194 201 203 202 207 210 212
152 149 147 143 143 141 135 129 129 129 134 143 143 142 145 150 148 143 151 162 139 120 110 144 131 145 131 102 223 241 227 203 203 194 192 194 197 201 204 207 210 209 213
147 147 148 146 148 144 132 116 106 105 116 131 140 148 149 153 144 134 135 137 130 116 101 105 138 127 160 222 278 341 273 222 204 202 200 199 201 202 200 208 213 216 221
149 149 153 153 158 150 142 141 139 147 146 148 159 155 153 154 142 133 142 131 129 135 175 152 132 91 25 79 67 12 357 338 241 213 190 183 190 191 170 185 188 185 208
162 162 159 159 162 163 161 157 153 154 162 164 159 153 156 152 150 153 148 144 144 139 131 120 117 118 240 116 120 82 6 355 348 315 170 170 177 180 180 190 182 180 197
170 170 168 168 164 166 160 138 121 94 71 88 132 160 172 155 151 152 152 147 145 144 162 180 150 149 200 287 148 141 145 220 309 332 322 146 171 184 212 203 189 194 195
176 170 163 168 168 169 160 154 155 159 173 195 180 177 173 162 159 163 159 156 155 152 167 195 164 163 152 220 299 229 175 166 159 289 322 319 234 211 223 209 196 199 194
172 168 166 164 170 169 163 163 163 169 179 176 161 162 172 183 178 173 169 159 158 163 171 171 158 154 162 168 178 193 71 83 138 157 246 298 328 293 238 216 197 204 212
170 166 165 165 174 172 167 169 170 171 168 164 172 175 176 176 196 191 172 164 167 170 170 177 177 161 173 160 160 156 159 168 189 168 197 217 247 279 258 236 216 221 228